sat.trackr.live / text

‹ back to catalog

STARLINK-38068

NORAD 69984 · 2026-159K

PAYLOAD ACTIVE UNKNOWN

§ Identity

Operator
Country
US
Launch date
2026-07-11
Launch site
AFWTR
Launch vehicle
Mass (kg)
RCS (m²)

Purposes: comms

External: N2YO · Heavens-Above · Gunter

§ Orbital elements

Epoch: 2026-09-19T19:00:38.184768Z

Period
92.95 min
Inclination
97.2856°
Eccentricity
0.0001489
Mean motion
15.49223401 rev/d
Perigee alt
418.0 km
Apogee alt
420.0 km
Semi-major
6,797.1 km
B*
7.4604e-4
RAAN
104.5429°
Arg perigee
92.6303°
Mean anomaly
267.5118°
Rev number
1,233

§ Raw data

STARLINK-380681 69984U 26159K   26262.79210862  .00040744  00000+0  74604-3 0  99942 69984  97.2856 104.5429 0001489  92.6303 267.5118 15.49223401 12335

JSON: /api/v1/satellites/69984 · /tle

For live sub-satellite position, see the globe view (requires WebGL).

§ Visibility from observer

Set your observer location to see the next 7 days of passes ≥ 10°. The values pass through the URL so the page stays shareable.

No JS? Fill the form by hand. The geolocation button needs JavaScript.